Regional Weather Roundup
Issued by NWS

Home | Current Version | Previous Version | Graphics & Text | Print | Product List | Glossary On
Versions: 1 2 3 4 5 6 7 8 9 10 11 12 13 14 15 16 17 18 19 20 21 22 23 24 25 26 27 28 29 30 31 32 33 34 35 36 37 38 39 40 41 42 43 44 45 46 47 48 49 50
000
ASUS43 KIND 201409
RWRIN

WEATHER ROUNDUP FOR INDIANA
NATIONAL WEATHER SERVICE INDIANAPOLIS IN
1000 AM EDT SUN AUG 20 2017

NOTE: "FAIR" INDICATES FEW OR NO CLOUDS BELOW 12,000 FEET WITH NO
SIGNIFICANT WEATHER AND/OR OBSTRUCTIONS TO VISIBILITY.

* - STATION DOES NOT REPORT WEATHER SUCH AS PRECIPITATION OR FOG.

+ - STATION NOT QUALITY CONTROLLED BY THE NATIONAL WEATHER SERVICE.
    USE DATA WITH CAUTION...ESPECIALLY DEWPOINT AND RELATIVE
    HUMIDITY OBSERVATIONS.

INZ001>003-010>013-019-020-201500-
NORTHWEST INDIANA

CITY           SKY/WX    TMP DP  RH WIND       PRES   REMARKS
GARY /AIRPORT/ PTSUNNY   75  61  60 VRB5      30.05S
KNOX *+        SUNNY     72  63  73 CALM      30.06R
LA PORTE +     SUNNY     71  63  75 SE5       30.07S
MICHIGAN CITY+ SUNNY     73  61  64 S3        30.06R
MONTICELLO +   SUNNY     72  65  79 CALM      30.05S
RENSSELAER +   SUNNY     72  61  68 SE5       30.06R
VALPARAISO     SUNNY     73  64  73 SE5       30.07R

$$

LMZ046-743>745-201500-
SOUTHERN LAKE MICHIGAN

STATION/POSITION TIME  TEMP    WIND        PRES    WAVE
                       AIR SEA DIR/SP/G            HT
                 (UTC) (F)     (DEG/KT/KT) (MB)    (FT)
BURNS HARBOR     1340   75     170/  8/ 13 1017.6S
MICHIGAN CITY    1340   72     130/  9/ 11   N/A
5NW MICH CITY    1400   73 74  170/ 10/ 14   N/A     1

$$

INZ004-005-014>016-021>024-201500-
NORTH CENTRAL INDIANA

CITY           SKY/WX    TMP DP  RH WIND       PRES   REMARKS
ELKHART        SUNNY     73  61  64 SE6       30.07F
GOSHEN         SUNNY     73  62  68 SE8       30.07F
LOGANSPORT +   SUNNY     72  64  78 SE7       30.07S
PERU/GRISSOM   SUNNY     74  65  73 S7        30.06S
ROCHESTER +    SUNNY     73  64  73 SE5       30.07S
SOUTH BEND     SUNNY     74  62  66 SE8       30.06F
WARSAW +       SUNNY     70  63  78 CALM      30.07F

$$

INZ006>009-017-018-025>027-201500-
NORTHEAST INDIANA

CITY           SKY/WX    TMP DP  RH WIND       PRES   REMARKS
AUBURN +       SUNNY     72  63  73 CALM      30.10S
FORT WAYNE     MOSUNNY   74  62  66 SE5       30.09S
HUNTINGTON +   SUNNY     73  63  72 SE5       30.08S

$$

INZ028-029-035-036-043>045-051>053-201500-
WEST CENTRAL INDIANA

CITY           SKY/WX    TMP DP  RH WIND       PRES   REMARKS
GREENCASTLE +  SUNNY     75  68  78 CALM      30.08F
LAFAYETTE      SUNNY     74  67  78 S3        30.06R
TERRE HAUTE    CLOUDY    78  70  76 CALM      30.06S

$$

INZ030>032-037>040-046>048-054>057-064-065-201500-
CENTRAL INDIANA

CITY           SKY/WX    TMP DP  RH WIND       PRES   REMARKS
CP ATTERBURY + SUNNY     77  70  78 CALM      30.08S
FRANKFORT +    CLOUDY    77  70  78 CALM      30.08S
GREENWOOD *+   SUNNY     75  67  76 S3        30.08S
INDIANAPOLIS   MOSUNNY   77  69  76 S7        30.07R
-EAGLE CREEK   SUNNY     77  67  71 CALM      30.07R
KOKOMO +       SUNNY     73  67  81 S7        30.08S
MARION +       SUNNY     73  64  73 S6        30.08S
MT COMFORT *+  SUNNY     73  68  83 S7        30.08R
SHELBYVILLE    SUNNY     77  68  73 S8        30.07S
ZIONSVILLE +   SUNNY     74  68  83 CALM      30.09R

$$

INZ033-034-041-042-049-050-058-059-201500-
EAST CENTRAL INDIANA

CITY           SKY/WX    TMP DP  RH WIND       PRES   REMARKS
MUNCIE         SUNNY     78  65  63 S7        30.08S
RICHMOND +     PTSUNNY   73  68  83 S5        30.11R HAZE

$$

INZ060-061-067>069-081>083-085>088-201500-
SOUTHWEST INDIANA

CITY           SKY/WX    TMP DP  RH WIND       PRES   REMARKS
EVANSVILLE     CLOUDY    75  71  87 CALM      30.07R
HUNTINGBURG +  LGT RAIN  74  72  93 CALM      30.09R
WASHINGTON +   CLOUDY    73  71  92 MISG      30.06S

$$

INZ062-063-066-070>080-084-089>092-201500-
SOUTH CENTRAL AND SOUTHEAST INDIANA

CITY           SKY/WX    TMP DP  RH WIND       PRES   REMARKS
BEDFORD +      MOSUNNY   79  68  69 CALM      30.07S
BLOOMINGTON    SUNNY     81  70  69 SW6       30.08S
MADISON *+     SUNNY     79  70  73 CALM      30.10F
NORTH VERNON + SUNNY     77  70  78 S3        30.09R
SEYMOUR +      SUNNY     79  70  73 S3        30.07S

$$




USA.gov is the U.S. government's official web portal to all federal, state and local government web resources and services.